Location: Berlin
(41.6095°N, 84.7544°W)
Time: 06:23:45
(UTC+00:00)

Daily predictions for brighter satellites

Satellite Brightness Start Highest point End
(mag) Time Altitude Azimuth Time Altitude Azimuth Time Altitude Azimuth
Cosmos 1441 Rocket 2.8 22:42:20 10° N 22:45:41 74° E 22:49:02 10° SSE
Cosmos 1484 Rocket 3.4 22:44:51 10° S 22:48:15 54° W 22:51:44 10° NNW
OAO 2 Rocket 4.5 22:47:43 10° SW 22:52:15 35° S 22:56:52 10° ESE
Tiangong 0.8 22:53:14 10° WSW 22:55:27 18° SSW 22:57:39 10° SSE
Cosmos 1869 3.9 22:53:03 10° SSE 22:56:05 27° E 22:59:06 10° NNE
DNEPR-1 R/B 3.8 22:52:40 10° NNW 22:57:15 79° ENE 23:02:37 10° SE
ARIANE 5 R/B 2.5 22:52:48 10° SSE 22:57:40 57° ENE 23:02:33 10° N
Cosmos 44 Rocket 4.2 22:54:40 10° S 22:58:42 29° ESE 23:02:51 10° NE
Timation 2 Rocket 4.5 22:54:35 10° S 23:01:06 49° ESE 23:07:40 10° NE
SMAP 3.0 22:56:35 10° SSE 23:01:13 75° ENE 23:05:52 10° N
ATLAS CENTAUR R/B 3.8 23:06:30 10° NW 23:06:54 10° NW 23:07:17 10° NNW
AQUARIUS 4.2 23:06:14 10° SSE 23:10:31 52° ENE 23:14:48 10° N
Cosmos 2061 Rocket 4.0 23:04:15 10° S 23:10:35 88° E 23:16:52 10° N
Cosmos 1782 Rocket 3.9 23:06:27 10° SSW 23:10:51 72° W 23:15:17 10° N
SL-4 R/B 3.5 23:09:06 10° WNW 23:12:12 31° SW 23:15:26 10° SSE
Landsat 7 3.7 23:09:35 10° SSE 23:14:13 73° ENE 23:18:52 10° N
Cosmos 2233 Rocket 4.3 23:10:42 10° SSW 23:16:58 75° W 23:23:19 10° N
Cosmos 1300 Rocket 4.4 23:13:48 10° SSW 23:18:05 53° W 23:22:22 10° N
Meteor 2-12 Rocket 4.5 23:12:13 10° N 23:18:12 56° ENE 23:24:08 10° SSE
SPOT 1/Viking Rocket 3.9 23:18:43 10° SE 23:23:30 41° ENE 23:28:20 10° N
ATLAS 2AS CENTAUR R/B 4.4 23:21:25 10° N 23:24:34 13° NNE 23:27:19 11° NE
Cosmos 407 Rocket 3.4 23:20:25 10° S 23:25:35 74° ESE 23:30:45 10° NNE
ISS -3.7 23:22:51 10° WSW 23:26:10 72° NNW 23:28:16 21° NE
CZ-2D R/B 3.1 23:23:25 10° S 23:26:32 67° WSW 23:29:42 10° NNW
Geosat FO 4.2 23:23:50 10° SE 23:26:37 46° ENE 23:29:24 10° NNW
SL-12 R/B(2) 4.2 23:20:26 10° SSW 23:28:09 82° ESE 23:37:34 10° NE
Cosmos 2082 Rocket 3.0 23:24:34 10° N 23:29:26 29° NE 23:33:06 15° ESE
Cosmos 1943 Rocket 2.1 23:24:29 10° SSW 23:30:03 70° ESE 23:35:38 10° NNE
OAO 3 Rocket 4.4 23:26:09 10° SW 23:30:14 31° S 23:33:15 15° ESE
Cosmos 1464 Rocket 4.4 23:24:33 10° SSE 23:30:23 41° E 23:36:10 10° NNE
Cosmos 2278 Rocket 2.2 23:24:51 10° S 23:30:26 66° ESE 23:36:03 10° NNE
Cosmos 371 Rocket 4.5 23:26:59 10° SE 23:30:31 21° E 23:31:10 20° E
Cosmos 2151 Rocket 4.3 23:27:18 10° SSE 23:31:16 32° E 23:35:05 11° NNE
IRS-1C 4.4 23:26:45 10° S 23:32:03 71° WSW 23:37:23 10° NNW
Aureole 3 Rocket 2.3 23:29:06 10° S 23:32:08 51° E 23:34:33 14° NNE
Cosmos 1975 Rocket 3.2 23:28:25 10° N 23:32:45 77° W 23:37:07 10° S
SJ-6F 4.2 23:29:58 10° SSE 23:33:53 87° ENE 23:37:49 10° NNW
ATLAS 5 CENTAUR R/B 2.0 23:31:06 10° NW 23:35:42 80° WSW 23:41:26 10° SSE
CZ-4 R/B 4.3 23:33:40 10° SSE 23:37:33 58° ENE 23:41:28 10° N
COSMO-SKYMED 1 2.8 23:36:04 13° NNE 23:39:32 42° E 23:43:26 10° S
MOS 1 Rocket 2.9 23:36:09 10° SSE 23:40:24 79° ENE 23:44:50 10° N
USA 215 3.6 23:35:35 10° SE 23:42:05 68° SW 23:48:36 10° NW
Spot 4 Rocket 4.1 23:37:28 10° SE 23:42:22 51° ENE 23:47:18 10° N
SKYMED 2 3.5 23:39:31 10° NNE 23:43:53 72° ESE 23:48:12 10° S
Helios 1A Rocket 2.5 23:43:03 29° NE 23:44:25 49° ESE 23:47:41 10° S
Timation 1 Rocket 4.3 23:38:44 10° NNW 23:44:39 62° ENE 23:50:32 10° SE
Okean 1 Rocket 3.8 23:42:55 10° SSE 23:46:31 29° E 23:46:31 29° E
RESURS DK-1 2.1 23:50:46 10° NNW 23:54:45 67° ENE 23:57:09 23° SE
